Theta_e
292 293 295 296 297 297 297 298 298 298 299 300 300 300 303 306 307 308 311 313 314 315 316 317 317 318 318 317 317 317 318 317 317 316 317 318 318 318 317 319 319 318 317 314 313 312 310 308 306 304 303 307
290 290 291 292 293 293 294 294 294 294 294 295 298 296 295 299 302 304 305 307 309 312 314 315 315 317 317 317 317 317 317 317 317 317 316 317 317 317 316 317 318 318 317 315 313 313 311 309 306 303 303 304
288 288 288 289 289 290 291 291 291 291 290 291 293 294 292 293 295 298 300 301 302 305 310 312 313 314 316 317 317 318 317 316 316 316 316 316 316 317 316 317 318 318 317 315 314 314 312 310 306 302 301 301
287 287 287 287 288 288 289 289 289 289 289 289 290 291 291 290 291 292 293 295 297 298 301 305 308 311 313 315 316 316 316 316 315 316 317 316 315 316 316 317 318 318 317 316 314 313 310 310 308 303 301 299
286 286 287 287 287 287 287 288 288 288 289 289 289 289 290 290 290 290 290 291 292 293 294 296 299 302 305 309 312 314 315 315 315 316 317 316 315 315 316 317 317 317 317 315 313 313 309 308 310 305 301 297
286 286 286 286 287 287 287 287 287 288 288 288 288 289 289 289 289 289 289 289 290 290 291 292 293 295 296 298 303 308 310 313 314 315 315 315 315 314 315 316 316 316 317 315 313 313 309 307 308 305 301 296
285 286 286 286 286 286 286 287 287 287 288 288 288 288 288 289 288 289 289 289 289 289 290 290 292 293 293 294 295 298 301 305 310 313 314 314 314 314 314 314 315 315 316 316 313 313 311 308 306 303 301 297
285 285 285 285 286 286 286 286 286 287 287 288 288 288 288 288 288 288 288 289 289 289 289 289 290 291 293 293 293 294 295 297 301 306 310 313 313 313 314 314 315 315 315 316 314 314 312 310 306 301 303 301
285 285 285 285 285 285 285 286 286 286 286 287 287 287 288 288 288 288 288 288 288 288 289 289 289 290 291 292 292 292 293 294 295 297 300 306 311 312 312 312 314 315 315 314 314 314 313 312 307 300 304 305
285 285 285 285 285 285 285 285 285 286 286 286 287 287 287 288 288 288 289 288 288 288 288 289 289 289 290 290 291 291 291 292 293 294 295 298 304 309 312 311 311 314 314 314 314 314 313 312 309 302 303 308
285 285 285 285 285 285 285 285 285 285 285 286 286 287 287 287 288 288 289 289 289 288 288 288 288 289 289 289 290 290 291 292 292 293 294 294 297 303 309 310 310 311 313 314 313 313 313 312 312 306 303 308
285 285 285 285 285 285 285 285 285 285 285 285 286 286 287 287 287 288 288 289 289 289 289 288 288 288 289 289 289 290 290 291 292 292 293 294 294 296 303 309 309 309 311 313 313 313 313 313 313 310 306 308
284 285 285 285 285 285 285 285 285 285 285 285 285 286 287 287 287 287 288 288 288 288 289 288 288 288 288 289 289 289 290 290 291 292 293 293 294 295 298 305 309 309 309 311 312 313 312 312 313 312 309 308
284 284 285 285 285 285 285 285 285 285 285 285 285 285 286 287 287 287 287 287 288 288 288 288 288 288 288 288 288 289 289 290 290 291 292 293 294 295 297 301 306 308 308 308 311 312 311 311 312 313 311 310
284 284 284 285 285 285 285 285 285 285 285 284 284 285 285 286 287 287 287 287 287 288 288 288 288 288 288 288 288 288 288 289 289 290 291 292 293 294 296 299 303 307 308 307 308 310 311 310 311 312 312 311
283 283 284 284 285 285 285 285 285 285 285 285 284 284 284 285 285 286 286 286 287 287 287 288 288 288 288 288 288 288 288 288 289 289 290 290 291 292 294 296 299 304 307 307 307 308 310 310 310 311 311 311
283 283 283 283 284 285 285 285 285 285 285 285 284 284 284 284 284 285 285 285 286 286 287 287 288 288 288 288 288 288 288 288 288 288 289 289 290 291 292 294 296 299 304 306 306 306 308 309 309 309 310 310
282 282 282 282 283 284 285 285 285 285 285 285 284 284 284 284 284 284 284 284 285 285 285 286 287 287 288 288 288 288 288 288 288 287 288 288 289 289 291 292 294 296 299 303 305 305 306 307 307 308 309 309
281 281 282 282 282 283 284 285 285 285 285 284 284 284 284 284 284 284 284 284 284 284 284 285 285 286 287 288 287 288 288 288 288 287 287 287 288 288 289 291 292 293 295 298 302 304 304 305 306 306 307 308
280 280 280 281 281 282 283 284 285 285 285 284 284 284 284 283 283 283 283 283 283 283 283 284 284 286 286 287 287 287 288 288 287 287 287 287 287 288 288 289 291 292 293 294 298 301 302 303 304 305 305 306
278 278 278 279 279 280 281 283 284 284 284 284 284 284 283 283 283 283 283 283 283 283 283 284 284 285 286 287 287 287 287 288 288 287 288 288 287 287 287 288 289 290 291 292 294 297 300 301 301 303 304 304
278 278 278 278 278 278 279 281 281 281 282 282 283 283 283 282 282 282 282 282 283 283 284 284 285 285 286 286 287 287 287 287 287 287 287 287 287 287 287 287 288 289 290 291 292 294 297 299 300 301 302 303
278 277 277 278 278 279 279 280 281 281 281 281 282 283 283 282 282 282 282 282 282 283 284 285 284 284 285 286 286 286 287 287 287 287 287 287 288 288 287 287 287 287 289 290 291 293 294 297 298 299 300 301
277 277 277 278 279 280 280 280 280 281 281 281 281 282 282 283 282 282 282 281 281 282 283 284 284 284 284 285 285 286 286 286 287 287 287 287 288 288 288 287 287 287 288 289 291 292 293 295 297 298 299 299
277 277 277 278 279 279 278 278 278 279 280 281 281 281 281 282 282 282 281 281 281 281 282 283 284 284 284 284 285 285 285 286 286 286 287 287 287 288 288 287 287 287 288 290 291 292 293 295 296 297 298 298
277 277 277 277 278 277 276 276 276 277 278 279 280 280 280 281 282 282 281 281 281 281 282 283 284 284 284 284 285 285 285 286 286 286 286 287 287 288 288 288 288 287 289 291 292 293 294 295 296 296 296 296
277 277 277 277 276 276 275 275 276 276 277 278 278 279 279 280 281 281 281 281 280 280 281 283 283 284 284 284 285 285 285 286 286 286 286 287 287 287 288 288 288 287 288 289 291 293 294 295 296 295 294 294
277 277 277 276 276 276 275 275 275 275 276 276 277 278 278 279 279 279 279 280 280 280 280 282 283 283 283 284 284 285 285 285 285 285 286 286 286 287 287 288 288 288 287 288 289 291 293 294 296 297 296 294
277 277 276 276 276 275 275 275 275 275 276 276 276 277 277 278 278 278 278 278 279 279 279 281 282 283 283 283 284 284 284 284 284 285 285 285 285 286 286 287 287 288 288 288 288 290 291 293 295 296 296 295
276 276 276 275 275 275 275 275 275 276 276 276 276 276 277 277 277 277 277 278 278 278 279 280 282 282 283 283 283 284 283 283 283 283 284 284 284 285 285 286 287 287 287 287 288 289 289 291 293 294 293 294
276 276 275 275 274 274 275 275 275 275 275 276 276 276 276 276 276 276 277 277 278 278 278 279 281 282 283 283 282 282 282 281 281 281 282 282 283 283 284 285 286 286 287 287 288 288 288 289 290 291 291 292
Wind_Speed
33 32 31 29 30 30 29 29 28 27 24 24 25 25 23 20 19 18 15 12 10 9 7 5 5 5 10 12 12 10 9 8 9 9 10 10 10 9 8 10 12 15 17 15 13 10 7 5 7 9 12 18
34 33 32 31 30 30 29 29 29 29 29 26 25 26 27 24 22 21 20 18 16 12 10 8 7 5 4 7 10 12 12 10 8 9 10 10 11 11 9 9 11 15 18 16 15 12 9 6 6 10 11 18
34 33 33 32 32 31 30 29 29 30 30 30 27 26 28 29 27 24 23 21 21 18 14 12 10 8 6 5 4 8 12 13 10 8 10 10 10 11 10 9 10 14 18 17 17 15 12 8 7 10 11 16
33 34 33 33 33 31 30 30 30 30 30 31 30 28 27 29 29 29 27 25 23 22 20 17 15 13 10 8 6 7 7 12 13 11 11 10 10 11 11 10 10 12 17 19 18 17 14 11 8 11 11 14
33 33 33 33 33 32 31 30 30 30 31 31 30 29 28 28 29 29 28 27 26 24 23 22 20 18 16 14 11 10 9 8 12 12 12 11 9 10 11 10 11 10 14 21 20 18 16 13 10 11 12 13
33 33 33 33 33 32 31 30 30 30 30 31 31 30 30 29 29 28 27 27 27 25 24 24 22 22 21 20 17 15 14 11 10 12 13 13 11 10 12 11 13 10 11 20 20 19 17 14 12 12 13 14
33 33 33 32 32 31 30 30 29 29 28 29 29 29 29 29 29 29 28 27 26 25 25 24 23 22 22 23 22 20 19 17 13 12 13 15 15 13 13 12 14 12 11 18 20 20 20 16 15 14 13 15
32 32 31 31 31 30 30 30 28 27 27 27 27 27 27 27 28 29 29 29 28 26 25 24 23 22 21 22 23 22 22 22 19 17 15 14 15 15 13 12 13 14 12 17 19 21 23 20 17 17 14 14
31 31 31 30 30 29 29 29 28 27 26 25 25 25 24 24 25 27 28 29 30 29 27 24 23 22 22 21 22 23 22 22 22 22 21 18 16 14 12 11 11 14 15 16 19 21 25 24 20 19 16 14
28 29 30 29 29 28 28 28 27 26 25 24 23 23 23 22 22 23 24 26 28 29 28 25 22 21 21 21 21 22 21 20 20 21 22 22 19 15 12 10 10 13 17 17 18 21 25 27 23 21 19 16
26 27 28 28 27 27 27 27 27 26 25 23 22 22 21 21 21 20 20 21 23 24 25 24 22 21 19 19 20 20 21 20 19 18 18 20 20 18 15 12 10 11 17 20 19 21 25 27 26 24 22 19
26 25 25 26 26 26 26 26 26 26 24 23 21 21 20 20 20 20 19 19 19 20 20 21 21 21 19 18 17 18 19 20 19 18 17 17 18 18 18 15 12 11 14 20 22 22 25 27 27 26 25 22
25 25 24 24 25 25 24 24 24 24 23 23 21 20 20 20 20 20 21 21 20 20 19 20 21 20 20 18 17 16 17 19 20 19 18 17 17 16 17 17 15 13 13 17 23 25 26 28 29 28 28 26
25 24 24 22 22 23 23 22 22 22 22 22 21 20 19 19 19 20 20 21 21 21 20 19 20 20 19 18 17 16 15 17 19 19 19 18 17 16 15 15 15 15 14 16 21 26 28 29 30 30 30 29
25 24 24 22 20 20 21 21 21 22 21 21 20 19 19 18 18 19 19 20 20 20 19 17 17 18 17 16 15 14 14 14 16 18 19 18 17 17 16 14 14 15 16 16 19 25 29 30 32 33 32 32
24 24 24 22 21 19 19 20 20 21 20 20 20 19 19 19 19 19 19 19 19 19 18 17 15 15 15 15 13 12 13 13 13 16 18 18 18 17 16 15 14 14 15 17 19 23 29 31 33 35 35 34
23 23 24 23 22 20 19 19 19 19 19 19 19 19 18 19 19 20 21 20 20 19 19 18 16 16 14 13 13 12 12 13 13 14 16 18 18 18 17 16 14 13 14 16 19 22 27 31 34 36 37 37
23 24 24 24 23 21 19 19 19 18 18 18 18 18 19 19 20 20 21 21 21 21 20 19 18 17 15 13 12 12 11 12 13 14 15 16 18 18 18 16 15 14 14 14 17 21 24 29 33 36 38 39
27 27 26 25 25 23 20 18 18 18 18 19 19 20 21 21 21 22 22 22 22 22 21 21 20 18 17 14 13 12 11 11 12 12 13 14 16 17 18 17 15 15 15 14 15 18 21 25 30 34 38 40
28 29 28 27 26 25 22 18 17 18 20 22 22 23 23 22 22 22 22 21 22 22 21 21 20 19 18 17 15 13 12 11 11 11 11 11 13 15 16 17 17 15 15 15 16 16 19 23 26 31 36 40
28 29 30 29 28 26 24 20 18 20 23 23 22 22 21 20 20 19 19 19 20 21 21 21 20 19 18 17 17 16 14 12 11 11 11 11 11 12 14 16 17 17 16 16 17 16 18 21 24 28 32 37
25 27 29 28 28 27 26 23 22 24 25 25 23 22 20 18 18 18 18 18 18 19 20 20 19 18 17 17 17 17 15 13 11 11 12 13 12 11 12 14 16 17 17 16 17 17 18 19 23 27 30 34
23 25 26 25 24 24 24 23 23 24 24 25 23 22 20 19 19 19 19 18 17 18 19 19 19 18 17 15 15 16 15 13 12 12 13 14 13 12 12 12 13 15 17 17 16 17 17 18 21 24 28 31
22 24 25 22 20 20 21 22 23 22 22 24 24 23 21 20 19 19 19 19 19 19 20 20 20 20 19 16 15 15 15 14 13 13 13 13 13 14 14 13 12 13 14 17 17 18 18 18 19 21 25 29
19 21 22 19 16 18 21 22 24 24 24 24 24 25 23 20 19 19 19 20 20 20 21 21 20 21 20 18 17 17 16 14 14 13 13 13 13 14 15 14 12 11 11 12 12 14 15 17 18 20 23 27
20 21 20 18 16 18 22 24 23 24 24 23 24 26 25 21 18 18 20 21 21 21 22 21 20 20 20 19 19 19 17 15 13 13 12 12 12 13 14 15 13 10 9 7 6 8 10 12 14 17 21 26
21 22 22 21 20 22 24 25 23 23 24 24 24 25 24 22 20 20 22 23 23 23 23 22 21 20 20 20 20 20 18 14 11 10 11 11 11 12 13 14 13 12 10 9 8 6 6 6 7 8 14 21
19 20 21 21 22 24 26 27 26 25 24 22 22 22 22 23 23 24 25 25 26 25 24 24 23 23 22 21 19 18 15 12 9 8 9 10 10 11 11 12 13 13 12 11 9 5 4 4 5 6 6 11
17 17 18 19 20 21 22 24 26 25 24 23 22 22 22 22 22 25 26 27 29 29 27 25 25 26 23 19 17 15 12 10 9 8 8 9 9 10 10 11 13 13 13 13 12 10 7 4 4 5 2 3
18 17 17 16 16 17 17 18 20 21 24 26 25 24 24 25 25 25 27 28 29 30 29 27 27 26 21 17 16 14 11 10 9 9 9 9 9 10 10 10 11 13 15 15 16 16 15 12 10 8 5 5
18 17 17 17 18 16 16 17 19 20 23 26 27 27 29 30 29 28 28 28 29 30 30 28 28 25 20 17 16 15 13 11 10 10 11 11 11 12 11 10 10 12 14 15 17 19 20 20 21 18 11 6
Wind_Direction
48 48 46 45 45 44 43 42 39 39 44 46 47 47 47 48 51 48 44 39 29 23 17 5 340 277 251 258 253 260 267 260 266 255 244 242 240 244 246 240 230 212 194 184 193 200 189 168 176 193 205 197
45 44 44 45 45 45 43 42 41 41 44 47 46 42 41 41 44 46 44 40 34 27 20 16 13 8 307 281 267 270 266 258 268 263 259 251 243 251 254 244 236 219 202 191 195 206 207 185 171 186 200 200
41 40 41 43 43 44 41 39 38 38 41 46 48 44 41 39 39 40 40 38 36 30 23 20 17 15 6 350 322 291 268 256 261 271 273 266 257 257 255 245 229 219 210 199 196 206 210 197 174 176 191 198
37 37 37 39 40 41 39 36 33 32 34 37 42 41 39 38 37 37 36 36 35 32 28 24 19 11 2 351 337 321 287 252 252 275 286 278 272 265 258 242 223 220 213 203 199 204 206 201 187 175 183 193
34 34 33 35 36 36 36 33 30 28 28 28 30 31 31 31 32 32 32 32 30 29 28 27 23 17 10 1 345 329 317 271 255 270 281 274 273 271 266 248 231 238 217 203 199 204 204 201 198 180 180 189
33 31 30 31 31 32 32 30 28 26 24 23 23 22 21 21 22 23 25 26 25 23 22 23 21 18 15 11 4 351 340 323 287 271 270 267 269 270 274 263 241 241 217 203 202 206 205 200 200 185 180 186
31 29 29 29 28 28 29 28 26 24 22 20 19 18 16 14 13 13 15 17 19 19 17 16 15 12 10 9 7 1 355 348 331 300 280 268 268 272 279 278 250 239 222 207 206 206 206 204 200 188 181 186
28 27 27 26 26 25 25 25 23 22 20 17 15 14 13 11 9 7 7 7 9 12 13 11 9 7 4 2 -0 357 355 352 346 335 320 296 280 277 282 284 251 233 224 213 212 211 207 206 202 193 187 189
24 23 24 24 22 21 22 21 20 20 17 14 11 9 9 8 7 5 2 1 1 3 5 5 5 6 3 358 354 351 349 348 345 342 340 330 311 291 282 283 255 227 219 216 218 219 208 205 204 196 194 193
20 19 19 19 18 17 18 17 16 16 15 12 8 3 2 2 3 3 1 359 357 356 357 358 360 3 2 356 350 346 343 342 340 338 337 335 329 314 289 281 272 235 220 220 224 225 210 205 207 199 197 200
18 15 13 13 13 13 12 11 11 12 11 8 4 -0 357 356 356 356 357 357 356 354 351 350 352 356 358 354 347 341 337 334 333 331 329 327 326 321 304 284 277 252 227 221 226 229 214 206 210 205 200 206
15 12 9 8 6 7 7 5 7 7 5 3 1 359 355 352 350 348 349 349 351 350 348 346 346 350 351 349 343 336 330 326 325 324 321 319 318 316 309 293 275 264 243 224 220 227 221 210 212 210 206 211
9 6 5 3 1 0 360 360 2 1 359 360 358 357 355 353 350 347 344 342 341 340 343 345 344 346 346 343 339 332 326 320 319 319 316 314 313 309 304 296 280 267 258 238 224 225 226 216 213 214 212 214
5 2 359 357 356 353 351 353 355 355 355 355 353 353 352 350 349 347 345 342 338 334 334 339 340 340 341 339 336 330 323 315 312 314 314 312 310 308 299 292 283 269 260 252 238 231 229 221 217 218 218 218
1 359 356 351 348 346 345 345 346 348 349 349 349 348 346 345 344 343 343 342 340 336 330 329 331 333 334 334 333 329 322 312 304 304 309 311 309 308 304 294 283 272 259 252 246 239 235 227 220 219 222 222
357 354 351 347 343 340 339 338 339 341 341 342 343 342 341 339 338 336 335 335 337 337 332 326 322 321 325 328 329 327 324 317 306 298 298 304 306 304 304 300 288 273 260 251 246 243 241 233 224 221 222 224
353 348 345 344 341 337 335 333 332 333 335 336 336 335 335 334 333 331 329 328 327 328 328 326 321 315 313 318 322 321 323 322 316 306 297 295 299 301 301 300 296 282 264 251 245 243 243 239 231 224 223 224
354 349 343 340 338 335 331 330 327 325 328 329 330 330 328 328 327 325 324 322 321 320 318 319 318 315 310 307 311 311 315 320 319 315 308 300 296 298 301 302 300 292 277 260 248 242 242 243 239 231 226 225
354 350 344 339 337 335 330 326 322 318 322 325 325 326 326 324 322 320 318 316 316 315 313 312 310 311 310 303 301 302 303 307 313 315 313 310 302 298 300 302 303 299 291 276 257 246 242 243 244 239 232 227
352 349 345 339 336 335 332 327 322 319 322 326 325 325 322 320 317 314 312 310 309 311 312 309 304 303 305 302 297 295 294 293 300 307 306 310 309 303 300 301 303 302 300 290 274 258 248 243 243 243 239 232
353 349 345 340 334 333 332 330 328 325 323 323 325 324 318 314 314 311 309 307 305 308 311 309 303 299 299 297 295 292 288 284 287 295 297 301 305 304 302 300 301 302 303 299 288 273 257 248 244 242 242 238
353 350 346 340 334 332 331 329 326 325 323 321 320 319 317 316 317 314 313 310 305 307 310 310 305 301 298 294 291 290 285 279 277 283 288 292 294 297 300 299 298 301 302 301 295 284 269 257 249 244 242 240
351 349 347 340 334 332 333 330 326 325 323 322 318 313 312 315 318 317 314 312 309 307 307 309 306 303 302 297 292 289 284 278 273 274 278 283 288 290 294 296 295 297 299 300 295 286 277 266 256 250 245 241
349 349 348 341 335 332 333 331 326 323 320 321 319 315 310 308 311 314 312 311 310 306 304 305 306 304 301 298 296 291 286 282 277 275 274 275 279 284 288 292 295 297 295 295 293 288 282 271 261 254 248 243
345 346 346 342 335 331 330 328 324 319 317 316 316 316 313 306 304 307 307 308 310 308 304 302 302 302 300 297 295 293 290 287 283 279 276 272 271 277 284 288 293 299 294 291 294 295 289 276 262 254 248 244
340 342 342 336 327 325 326 325 321 315 312 309 308 311 312 309 304 302 304 305 307 308 305 303 300 298 299 297 293 290 289 290 288 280 275 272 268 269 277 281 284 289 289 280 280 294 296 284 266 249 243 242
333 335 336 330 322 323 324 324 321 315 312 307 302 303 308 311 307 303 306 304 302 304 304 301 298 296 298 297 293 290 285 285 286 280 274 270 268 266 268 272 273 276 274 265 269 283 281 275 270 253 240 238
325 327 327 324 318 319 322 323 323 320 317 313 306 303 305 306 304 304 305 301 297 298 300 298 294 294 296 293 291 288 281 275 272 275 276 272 273 272 265 263 264 265 263 259 260 261 257 258 260 257 239 235
317 317 318 318 317 317 319 323 326 324 320 318 313 308 307 306 307 305 303 299 294 292 293 294 291 291 289 283 282 281 276 274 272 275 278 278 283 283 274 267 265 261 255 253 251 245 248 263 252 253 298 292
309 308 312 318 318 316 316 319 322 321 316 314 311 306 304 305 306 305 302 297 292 288 288 288 287 284 276 268 269 269 269 278 284 284 282 284 290 290 288 281 271 263 255 254 253 247 246 255 261 273 317 327
300 303 313 322 321 316 315 315 314 312 309 306 303 300 298 298 299 301 300 295 290 286 284 284 281 272 261 258 261 261 265 275 284 286 283 286 290 292 294 289 274 265 261 259 256 251 249 254 261 266 270 271